Overview Statistics Trail Chart Weather Telemetry Raw packets
 

This is the latest recevied weather packets stored in our database for station/object NC4M. If no packets are shown the sender has not sent any weather packets the latest 10 day(s).

<< 11 12 13 14 15 16 17 >>
Time Temp. Humidity Pressure Rain* Wind** Luminosity Snow
1788486708 26.67° C 78% 1014.5 hPa 0 mm - 0 W/m² -
1788486408 26.67° C 76% 1014.4 hPa 0 mm - 0 W/m² -
1788486103 26.67° C 74% 1014.4 hPa 0 mm - 0 W/m² -
1788485800 27.22° C 74% 1014.2 hPa 0 mm - 0 W/m² -
1788485496 27.22° C 74% 1014.3 hPa 0 mm - 0 W/m² -
1788485191 27.22° C 73% 1014.2 hPa 0 mm - 0 W/m² -
1788484890 27.78° C 72% 1014.3 hPa 0 mm - 0 W/m² -
1788484589 27.78° C 70% 1014.3 hPa 0 mm - 0 W/m² -
1788484285 27.78° C 71% 1014.4 hPa 0 mm - 0 W/m² -
1788483981 28.33° C 72% 1014.2 hPa 0 mm - 0 W/m² -
1788483677 28.33° C 70% 1013.8 hPa 0 mm - 0 W/m² -
1788483372 28.89° C 67% 1014.2 hPa 0 mm - 0 W/m² -
1788483067 28.89° C 68% 1014.1 hPa 0 mm - 0 W/m² -
1788482763 29.44° C 66% 1013.8 hPa 0 mm - 0 W/m² -
1788482463 29.44° C 66% 1013.7 hPa 0 mm - 1 W/m² -
1788482159 30° C 64% 1013.8 hPa 0 mm - 2 W/m² -
1788481854 30° C 63% 1013.7 hPa 0 mm - 3 W/m² -
1788481550 30.56° C 62% 1013.8 hPa 0 mm - 5 W/m² -
1788481250 31.11° C 58% 1013.5 hPa 0 mm - 7 W/m² -
1788480946 31.11° C 57% 1013.5 hPa 0 mm - 10 W/m² -
1788480644 31.67° C 57% 1013.5 hPa 0 mm - 15 W/m² -
1788480339 31.67° C 58% 1013.6 hPa 0 mm - 16 W/m² -
1788480036 32.22° C 52% 1013.4 hPa 0 mm - 20 W/m² -
1788479736 32.22° C 51% 1013.4 hPa 0 mm - 24 W/m² -
1788479432 32.22° C 51% 1013.4 hPa 0 mm - 31 W/m² -

* Rain latest hour (hover to see other rain measurements)
** Current wind speed in m/s (hover to see current wind gust speed)